Regional Weather Roundup
Issued by NWS

Home | Current Version | Previous Version | Graphics & Text | Print | Product List | Glossary On
Versions: 1 2 3 4 5 6 7 8 9 10 11 12 13 14 15 16 17 18 19 20 21 22 23 24 25 26 27 28 29 30 31 32 33 34 35 36 37 38 39 40 41 42 43 44 45 46 47 48 49 50
000
ASUS43 KOAX 280802
RWRNE

WEATHER ROUNDUP FOR NEBRASKA
NATIONAL WEATHER SERVICE OMAHA NE
300 AM CDT SUN MAY 28 2017

NOTES: SATELLITE DATA IS BEING USED TO AUGMENT CLOUD COVER ABOVE
       12000 FEET.
       "FAIR" INDICATES FEW OR NO CLOUDS BELOW 12,000 FEET WITH NO
       SIGNIFICANT WEATHER AND/OR OBSTRUCTIONS TO VISIBILITY.

  * THESE STATIONS DO NOT REPORT WEATHER SUCH AS RAIN...SNOW OR FOG.

NEZ001>004-019>022-054>056-280900-
NEBRASKA PANHANDLE

CITY           SKY/WX    TMP DP  RH WIND       PRES   REMARKS
SCOTTSBLUFF    CLEAR     45  40  82 NW5       30.15S
ALLIANCE       CLEAR     41  39  93 W7        30.11S
CHADRON        PTCLDY    49  42  77 S8        30.09S
GORDON         FAIR      46  41  84 W6        30.07S
KIMBALL        CLEAR     44  37  77 W8        30.20S
SIDNEY         CLEAR     44  39  82 W12       30.16S
$$

NEZ057>060-069>072-079>082-280900-
SOUTHWEST NEBRASKA

CITY           SKY/WX    TMP DP  RH WIND       PRES   REMARKS
NORTH PLATTE   CLEAR     42  41  96 NW7       30.06F
IMPERIAL       CLEAR     50  42  74 W12       30.11S
LEXINGTON      CLEAR     48  46  91 NW7       30.03F
MCCOOK         CLEAR     50  49  96 W9        30.06F
OGALLALA       CLEAR     45  43  91 W8        30.10F
$$

NEZ005>010-023>029-035>040-094-280900-
NORTH CENTRAL NEBRASKA

CITY           SKY/WX    TMP DP  RH WIND       PRES   REMARKS
VALENTINE      CLEAR     50  43  77 W8        30.00F
AINSWORTH      CLEAR     52  46  77 W7        29.99S
BROKEN BOW     CLEAR     55  47  74 W14       30.00F
O`NEILL        CLOUDY    54  46  73 W10       29.95F
ORD            CLEAR     51  46  83 NW8       29.96F
THEDFORD       CLOUDY    49  46  87 W6        30.04F
$$

NEZ041-046>049-061>064-073>077-083>087-280900-
SOUTH CENTRAL NEBRASKA

CITY           SKY/WX    TMP DP  RH WIND       PRES   REMARKS
GRAND ISLAND   CLEAR     54  51  90 W10       29.98F
AURORA         CLEAR     54  51  89 W10       29.97S
HASTINGS       CLEAR     55  50  83 W10       29.99F
HEBRON         CLEAR     57  53  86 W5        30.00S
HOLDREGE       CLEAR     53  48  83 W8        30.02S
KEARNEY *      CLEAR     55  46  71 W8        30.00F
YORK           CLEAR     54  50  87 W7        29.97R
$$

NEZ011>018-030>034-042>045-280900-
NORTHEAST NEBRASKA

CITY           SKY/WX    TMP DP  RH WIND       PRES   REMARKS
NORFOLK        CLEAR     50  46  86 CALM      29.91F
ALBION         CLEAR     55  48  75 NW5       29.94F
BLAIR          MOCLDY    56  51  82 SW3       29.93S
FREMONT        CLEAR     56  50  82 W7        29.93S
TEKAMAH        CLEAR     54  49  83 CALM      29.91R
WAYNE          CLEAR     50  50  99 SW3       29.90F
$$

NEZ050>053-065>068-078-088>093-280900-
SOUTHEAST NEBRASKA

CITY           SKY/WX    TMP DP  RH WIND       PRES   REMARKS
LINCOLN        CLOUDY    59  51  75 W5        29.96R
OMAHA EPPLEY   MOCLDY    59  52  77 CALM      29.92S
BEATRICE       PTCLDY    56  54  90 NW6       29.96F
FALLS CITY     CLEAR     57  56  96 NW8       29.91F
NEBRASKA CITY  PTCLDY    59  54  83 NW7       29.93F
PLATTSMOUTH    PTCLDY    58  55  87 SW6       29.94S
$$

NEZ044-045-051>053-067-280900-
OMAHA AREA

CITY           SKY/WX    TMP DP  RH WIND       PRES   REMARKS
OMAHA EPPLEY   MOCLDY    59  52  77 CALM      29.92S
BLAIR          MOCLDY    56  51  82 SW3       29.93S
FREMONT        CLEAR     56  50  82 W7        29.93S
MILLARD        MOCLDY    58  55  88 CALM      29.94R
OFFUTT AFB     MOCLDY    58  52  83 W3        29.92R
PLATTSMOUTH    PTCLDY    58  55  87 SW6       29.94S
WAHOO          FAIR      56  50  81 W5        29.94S
$$



USA.gov is the U.S. government's official web portal to all federal, state and local government web resources and services.